Weather reports worldwide

Advertisment
Matera, Italy (16314): temperature & dewpoint: 11.07.2019 07:00:00 - 17.07.2019 07:00:00 (CEST)Matera, Italy (16314): wind speed: 11.07.2019 07:00:00 - 17.07.2019 07:00:00 (CEST)Matera, Italy (16314): wind direction: 11.07.2019 07:00:00 - 17.07.2019 07:00:00 (CEST)Matera, Italy (16314): reduced air pressure: 11.07.2019 07:00:00 - 17.07.2019 07:00:00 (CEST)
Date & Time tt [°C] td [°C] ff [km/h] ff [kn] dd ppp [hPa]
17.07.2019 07:00:00 - - - - - -
17.07.2019 06:00:00 16,1 15,9 0 0 N 1013,8
17.07.2019 05:00:00 16,1 15,4 0 0 N 1013,6
17.07.2019 04:00:00 16,1 15,2 0 0 N 1013,5
17.07.2019 03:00:00 16,8 15,6 0 0 N 1013,1
17.07.2019 02:00:00 16,5 15,6 0 0 N 1013,5
17.07.2019 01:00:00 16,2 14,8 0 0 N 1013,7
17.07.2019 00:00:00 16,6 14,0 0 0 N 1013,5
16.07.2019 23:00:00 17,0 14,6 0 0 N 1013,4
16.07.2019 22:00:00 17,5 15,2 0 0 N 1013,2
16.07.2019 21:00:00 18,5 15,3 0 0 N 1012,1
16.07.2019 20:00:00 20,0 15,1 0 0 N 1011,2
16.07.2019 19:00:00 20,3 15,0 0 0 N 1010,8
16.07.2019 18:00:00 20,6 14,4 0 0 N 1010,6
16.07.2019 17:00:00 20,4 15,5 0 0 N 1010,2
16.07.2019 16:00:00 20,0 17,9 0 0 N 1010,1
16.07.2019 15:00:00 19,3 16,1 0 0 N 1010,0
16.07.2019 14:00:00 18,6 18,1 0 0 N 1009,6
16.07.2019 13:00:00 20,0 18,6 0 0 N 1009,1
16.07.2019 12:00:00 19,6 18,0 0 0 N 1009,4
16.07.2019 11:00:00 19,1 18,4 0 0 N 1008,9
16.07.2019 10:00:00 17,3 17,2 0 0 N 1009,4
16.07.2019 09:00:00 16,8 16,7 0 0 N 1009,9
16.07.2019 08:00:00 15,5 15,4 0 0 N 1009,4
16.07.2019 07:00:00 15,8 15,4 0 0 N 1010,7
16.07.2019 06:00:00 15,4 15,3 0 0 N 1010,5
16.07.2019 05:00:00 16,3 16,2 0 0 N 1010,7
16.07.2019 04:00:00 17,8 17,7 0 0 N 1009,6
16.07.2019 03:00:00 18,4 18,3 0 0 N 1009,9
16.07.2019 02:00:00 18,1 18,0 0 0 N 1010,7
16.07.2019 01:00:00 17,6 16,6 0 0 N 1010,8
16.07.2019 00:00:00 17,7 16,5 0 0 N 1011,2
15.07.2019 23:00:00 18,0 16,1 0 0 N 1011,4
15.07.2019 22:00:00 19,9 13,7 0 0 N 1010,6
15.07.2019 21:00:00 21,0 12,1 0 0 N 1009,8
15.07.2019 20:00:00 22,2 12,9 0 0 N 1009,4
15.07.2019 19:00:00 22,9 13,8 0 0 N 1009,0
15.07.2019 18:00:00 24,2 13,3 0 0 N 1008,6
15.07.2019 17:00:00 24,5 14,2 0 0 N 1008,5
15.07.2019 16:00:00 24,8 13,3 0 0 N 1008,5
15.07.2019 15:00:00 25,7 12,8 0 0 N 1008,2
15.07.2019 14:00:00 25,1 12,6 0 0 N 1009,0
15.07.2019 13:00:00 23,8 12,1 0 0 N 1009,6
15.07.2019 12:00:00 23,2 11,9 0 0 N 1009,7
15.07.2019 11:00:00 22,9 12,8 0 0 N 1009,4
15.07.2019 10:00:00 21,9 14,7 0 0 N 1009,9
15.07.2019 09:00:00 20,0 14,3 0 0 N 1010,1
15.07.2019 08:00:00 18,0 12,8 0 0 N 1010,8
15.07.2019 07:00:00 17,9 12,5 0 0 N 1010,8
15.07.2019 06:00:00 17,0 13,3 0 0 N 1011,0
15.07.2019 05:00:00 15,6 12,8 0 0 N 1010,6
15.07.2019 04:00:00 16,7 13,2 0 0 N 1011,1
15.07.2019 03:00:00 17,0 13,3 0 0 N 1011,9
15.07.2019 02:00:00 17,3 13,3 0 0 N 1012,4
15.07.2019 01:00:00 17,0 13,4 0 0 N 1012,8
15.07.2019 00:00:00 16,9 13,9 0 0 N 1012,9
14.07.2019 23:00:00 17,4 14,0 0 0 N 1012,9
14.07.2019 22:00:00 18,1 13,9 0 0 N 1012,9
14.07.2019 21:00:00 19,1 12,8 0 0 N 1012,5
14.07.2019 20:00:00 21,1 13,4 0 0 N 1011,5
14.07.2019 19:00:00 22,3 12,8 0 0 N 1011,2
14.07.2019 18:00:00 23,3 12,8 0 0 N 1011,2
14.07.2019 17:00:00 23,9 13,1 0 0 N 1011,4
14.07.2019 16:00:00 24,4 12,6 0 0 N 1011,5
14.07.2019 15:00:00 24,3 12,6 0 0 N 1011,5
14.07.2019 14:00:00 24,1 12,4 0 0 N 1011,6
14.07.2019 13:00:00 23,7 12,6 0 0 N 1011,5
14.07.2019 12:00:00 22,9 12,5 0 0 N 1011,2
14.07.2019 11:00:00 22,6 13,6 0 0 N 1011,2
14.07.2019 10:00:00 21,4 14,5 0 0 N 1011,1
14.07.2019 09:00:00 20,0 16,6 0 0 N 1011,3
14.07.2019 08:00:00 18,4 18,3 0 0 N 1011,1
14.07.2019 07:00:00 17,1 17,0 0 0 N 1011,1
14.07.2019 06:00:00 16,9 16,8 0 0 N 1011,2
14.07.2019 05:00:00 16,7 16,6 0 0 N 1011,2
14.07.2019 04:00:00 17,0 16,9 0 0 N 1011,0
14.07.2019 03:00:00 17,1 17,0 0 0 N 1011,2
14.07.2019 02:00:00 17,1 17,0 4 2 NNE 1011,5
14.07.2019 01:00:00 17,7 17,6 0 0 N 1011,6
14.07.2019 00:00:00 18,1 18,0 13 7 NNE 1011,3
13.07.2019 23:00:00 18,3 18,2 0 0 N 1011,0
13.07.2019 22:00:00 18,8 18,7 21 11 NNE 1010,7
13.07.2019 21:00:00 18,8 18,7 0 0 N 1010,2
13.07.2019 20:00:00 18,9 18,8 22 12 N 1010,0
13.07.2019 19:00:00 19,2 19,1 0 0 N 1010,5
13.07.2019 18:00:00 18,3 17,6 0 0 N 1010,6
13.07.2019 17:00:00 22,2 20,6 11 6 SSW 1007,2
13.07.2019 16:00:00 24,0 20,3 0 0 N 1008,5
13.07.2019 15:00:00 24,9 20,5 0 0 N 1009,1
13.07.2019 14:00:00 25,5 19,3 0 0 N 1009,8
13.07.2019 13:00:00 25,6 20,1 0 0 N 1010,7
13.07.2019 12:00:00 24,7 19,2 0 0 N 1011,1
13.07.2019 11:00:00 23,7 18,9 0 0 N 1011,8
13.07.2019 10:00:00 22,6 18,7 0 0 N 1012,0
13.07.2019 09:00:00 21,7 18,8 0 0 N 1012,3
13.07.2019 08:00:00 20,9 18,4 0 0 N 1012,9
13.07.2019 07:00:00 20,5 18,4 0 0 N 1012,8
13.07.2019 06:00:00 19,6 17,5 0 0 N 1012,8
13.07.2019 05:00:00 19,5 17,6 0 0 N 1013,0
13.07.2019 04:00:00 17,8 16,4 0 0 N 1013,6
13.07.2019 03:00:00 18,0 16,3 0 0 N 1013,9
13.07.2019 02:00:00 18,3 15,3 0 0 N 1014,2
13.07.2019 01:00:00 18,2 15,8 0 0 N 1014,7
13.07.2019 00:00:00 18,3 16,2 0 0 N 1015,1
12.07.2019 23:00:00 18,2 17,7 0 0 N 1015,0
12.07.2019 22:00:00 18,2 18,1 0 0 N 1015,3
12.07.2019 21:00:00 18,0 17,9 0 0 N 1014,8
12.07.2019 20:00:00 18,5 18,4 0 0 N 1015,1
12.07.2019 19:00:00 18,5 18,1 0 0 N 1015,0
12.07.2019 18:00:00 18,2 17,8 0 0 N 1015,2
12.07.2019 17:00:00 18,8 16,7 0 0 N 1015,3
12.07.2019 16:00:00 22,7 13,9 0 0 N 1014,1
12.07.2019 15:00:00 25,8 12,9 0 0 N 1012,7
12.07.2019 14:00:00 26,9 12,8 0 0 N 1012,8
12.07.2019 13:00:00 27,7 12,5 0 0 N 1012,9
12.07.2019 12:00:00 26,4 11,3 0 0 N 1013,5
12.07.2019 11:00:00 25,0 8,9 0 0 N 1014,0
12.07.2019 10:00:00 24,1 7,6 0 0 N 1014,2
12.07.2019 09:00:00 22,7 6,8 0 0 N 1014,4
12.07.2019 08:00:00 20,7 8,9 0 0 N 1014,6
12.07.2019 07:00:00 - - - - - -
12.07.2019 06:00:00 17,0 8,6 0 0 N 1015,0
12.07.2019 05:00:00 16,9 8,5 0 0 N 1014,9
12.07.2019 04:00:00 16,6 8,5 0 0 N 1014,9
12.07.2019 03:00:00 17,3 8,9 0 0 N 1014,8
12.07.2019 02:00:00 17,4 9,0 0 0 N 1015,1
12.07.2019 01:00:00 17,8 7,2 0 0 N 1015,1
12.07.2019 00:00:00 17,9 8,7 0 0 N 1015,4
11.07.2019 23:00:00 17,9 12,9 0 0 N 1015,7
11.07.2019 22:00:00 18,0 12,8 0 0 N 1015,4
11.07.2019 21:00:00 19,1 13,0 0 0 N 1014,7
11.07.2019 20:00:00 21,3 12,4 0 0 N 1013,9
11.07.2019 19:00:00 22,6 12,2 0 0 N 1013,6
11.07.2019 18:00:00 24,1 12,9 0 0 N 1013,1
11.07.2019 17:00:00 25,0 13,5 0 0 N 1013,0
11.07.2019 16:00:00 25,3 12,1 0 0 N 1012,9
11.07.2019 15:00:00 24,9 11,4 0 0 N 1013,2
11.07.2019 14:00:00 24,0 11,6 0 0 N 1013,4
11.07.2019 13:00:00 23,5 12,7 0 0 N 1013,8
11.07.2019 12:00:00 22,6 11,3 0 0 N 1014,0
11.07.2019 11:00:00 21,5 13,3 0 0 N 1013,9
11.07.2019 10:00:00 20,8 14,1 0 0 N 1013,8
11.07.2019 09:00:00 19,8 14,1 0 0 N 1013,2
11.07.2019 08:00:00 17,6 15,9 0 0 N 1013,9
11.07.2019 07:00:00 17,0 15,8 0 0 N 1013,9

tt = temperature
td = dewpoint
ff = wind speed
dd = wind direction
ppp = reduced air pressure

Next stations